Location: Aufkirchen
(47.9603°N, 11.3653°E)
Time: 12:59:35
(UTC+01:00)

A-11 Canister half - All Passes

Search period start: 30 November 2020 00:00
Search period end: 10 December 2020 00:00
Orbit: 1525 x 1684 km, 47.3° (Epoch: 29 November)

Date Brightness Start Highest point End Pass type
(mag) Time Alt. Az. Time Alt. Az. Time Alt. Az.
30 Nov - 03:29:01 10° SSE 03:34:44 17° SE 03:40:26 10° E visible
30 Nov - 05:28:27 10° SW 05:38:00 49° SE 05:47:25 10° ENE visible
30 Nov - 07:32:27 10° WSW 07:42:36 82° SSE 07:52:30 10° E daylight
30 Nov - 09:37:44 10° W 09:47:49 82° SSW 09:57:32 10° ESE daylight
30 Nov - 11:43:01 10° WNW 11:52:20 48° SW 12:01:20 10° SE daylight
30 Nov - 13:50:14 10° W 13:55:25 16° SW 14:00:31 10° SSW daylight
01 Dec - 03:07:50 10° SSE 03:13:10 16° SE 03:18:28 10° E visible
01 Dec - 05:06:52 10° SSW 05:16:22 47° SE 05:25:44 10° ENE visible
01 Dec - 07:10:46 10° WSW 07:20:56 81° SSE 07:30:51 10° E visible
01 Dec - 09:16:03 10° W 09:26:09 83° S 09:35:54 10° ESE daylight
01 Dec - 11:21:19 10° WNW 11:30:43 50° SW 11:39:48 10° SE daylight
01 Dec - 13:28:16 10° W 13:33:52 17° SW 13:39:23 10° SSW daylight
02 Dec - 02:46:45 10° SSE 02:51:37 15° ESE 02:56:28 10° E visible
02 Dec - 04:45:18 10° SSW 04:54:44 45° SE 05:04:03 10° ENE visible
02 Dec - 06:49:05 10° WSW 06:59:15 80° SSE 07:09:11 10° E visible
02 Dec - 08:54:20 10° W 09:04:28 84° S 09:14:15 10° ESE daylight
02 Dec - 10:59:37 10° WNW 11:09:06 52° SSW 11:18:16 10° SE daylight
02 Dec - 13:06:21 10° W 13:12:19 18° SW 13:18:12 10° SSW daylight
03 Dec - 02:25:43 10° SSE 02:30:03 14° ESE 02:34:23 10° E visible
03 Dec - 04:23:45 10° SSW 04:33:06 44° SE 04:42:22 10° ENE visible
03 Dec - 06:27:24 10° WSW 06:37:34 79° SSE 06:47:31 10° E visible
03 Dec - 08:32:37 10° W 08:42:46 85° S 08:52:36 10° ESE daylight
03 Dec - 10:37:54 10° WNW 10:47:28 54° SSW 10:56:43 10° SE daylight
03 Dec - 12:44:27 10° W 12:50:46 19° SW 12:56:59 10° SSW daylight
04 Dec - 02:04:49 10° SE 02:08:30 13° ESE 02:12:11 10° E visible
04 Dec - 04:02:13 10° SSW 04:11:28 42° SE 04:20:40 10° ENE visible
04 Dec - 06:05:44 10° WSW 06:15:53 78° SSE 06:25:52 10° E visible
04 Dec - 08:10:56 10° W 08:21:06 85° S 08:30:58 10° ESE daylight
04 Dec - 10:16:12 10° WNW 10:25:51 55° SSW 10:35:10 10° SE daylight
04 Dec - 12:22:35 10° W 12:29:13 21° SW 12:35:43 10° S daylight
05 Dec - 01:44:04 10° SE 01:46:57 11° ESE 01:49:50 10° ESE visible
05 Dec - 03:40:40 10° SSW 03:49:51 41° SE 03:58:58 10° ENE visible
05 Dec - 05:44:03 10° WSW 05:54:12 77° SSE 06:04:11 10° E visible
05 Dec - 07:49:13 10° W 07:59:25 86° S 08:09:18 10° E daylight
05 Dec - 09:54:30 10° WNW 10:04:13 57° SSW 10:13:35 10° SE daylight
05 Dec - 12:00:44 10° W 12:07:39 22° SW 12:14:26 10° S daylight
06 Dec - 01:23:46 10° SE 01:25:24 10° ESE 01:27:02 10° ESE visible
06 Dec - 03:19:09 10° SSW 03:28:14 39° SE 03:37:16 10° ENE visible
06 Dec - 05:22:22 10° WSW 05:32:32 75° SSE 05:42:31 10° E visible
06 Dec - 07:27:31 10° W 07:37:43 86° S 07:47:38 10° E daylight
06 Dec - 09:32:47 10° WNW 09:42:34 59° SSW 09:52:01 10° SE daylight
06 Dec - 11:38:55 10° W 11:46:06 23° SW 11:53:07 10° S daylight
07 Dec - 02:57:39 10° SSW 03:06:36 37° SE 03:15:33 10° ENE visible
07 Dec - 05:00:43 10° WSW 05:10:51 74° SSE 05:20:52 10° ENE visible
07 Dec - 07:05:49 10° W 07:16:02 87° S 07:25:59 10° E visible
07 Dec - 09:11:06 10° WNW 09:20:56 61° SSW 09:30:27 10° SE daylight
07 Dec - 11:17:05 10° W 11:24:31 25° SW 11:31:47 10° S daylight
08 Dec - 02:36:09 10° SSW 02:44:59 36° SE 02:53:49 10° ENE visible
08 Dec - 04:39:03 10° WSW 04:49:10 73° SSE 04:59:11 10° ENE visible
08 Dec - 06:44:06 10° W 06:54:20 87° S 07:04:19 10° E visible
08 Dec - 08:49:23 10° WNW 08:59:17 63° SSW 09:08:51 10° SE daylight
08 Dec - 10:55:17 10° W 11:02:57 26° SW 11:10:26 10° S daylight
09 Dec - 02:14:40 10° SSW 02:23:22 34° SE 02:32:05 10° ENE visible
09 Dec - 04:17:24 10° WSW 04:27:30 71° SSE 04:37:30 10° ENE visible
09 Dec - 06:22:24 10° W 06:32:38 87° S 06:42:39 10° E visible
09 Dec - 08:27:41 10° WNW 08:37:37 64° SSW 08:47:16 10° SE daylight
09 Dec - 10:33:29 10° W 10:41:22 28° SW 10:49:04 10° S daylight
